[[{"header":{"parameterUnit":"m.s-1","parameterCategory":1,"la1":30.2991,"la2":30.254,"lo1":-89.0895,"lo2":-89.0444,"dy":0.0017,"dx":0.0017,"nx":28,"ny":28,"refTime":"2024-02-11T09:00:00:Z","depth":0,"parameterNumber":2,"parameterNumberName":"U-component_of_WINDS"},"data":[0,0,0,0,0,0,0,0,0,0,0,0,0,0,0,0,0,0,0,0,0,0,0,0,0,0,0,0,0,0,0,0,0,0,0,0,0,0,0,0,0,0,0,0,0,0,0,0,0,0,0,0,0,0,0,0,0,0,8.1884,8.1886,0,8.2062,8.2064,8.2066,8.1977,8.1972,8.1967,8.1963,8.215,8.2159,8.2168,0,0,0,0,0,0,0,0,0,0,0,0,0,8.1474,8.1482,8.1884,8.1886,8.1888,8.2061,8.2064,8.2066,8.1978,8.1972,8.1966,8.1961,8.2147,8.2158,8.2169,0,0,0,0,0,0,0,0,0,0,0,0,0,8.1652,8.1484,8.1884,8.1865,8.1865,8.2061,8.2064,8.2067,8.1979,8.1972,8.1965,8.1958,8.2143,8.2157,8.217,8.2397,0,0,8.2213,8.2219,0,0,0,0,0,0,0,0,8.1642,8.1667,8.1865,8.1867,8.1867,8.199,8.1988,8.2178,8.198,8.1936,8.1963,8.1955,8.2103,8.2119,8.2168,8.2405,8.2413,8.2214,8.2223,8.2229,8.2233,0,0,0,0,0,0,0,8.163,8.1659,8.1954,8.1868,8.1869,8.185,8.1867,8.2023,8.2056,8.1939,8.1933,8.1955,8.2102,8.2155,8.2172,8.2416,8.2214,8.2226,8.2235,8.224,8.2851,8.2859,0,0,0,0,0,0,8.1618,8.1649,8.1949,8.196,8.1735,8.1863,8.1882,8.1958,8.2054,8.2062,8.1961,8.195,8.2135,8.2156,8.2178,8.2452,8.2229,8.2242,8.225,8.2844,8.2853,8.2862,0,0,0,0,0,0,8.1609,8.1645,8.1942,8.1803,8.1839,8.1877,8.1962,8.1965,8.2018,8.2071,8.2077,8.2009,8.213,8.2159,8.2343,8.2457,8.2248,8.2261,8.2834,8.2847,8.2857,8.2999,0,0,0,0,0,0,8.1598,8.1643,8.1727,8.1806,8.1847,8.2103,8.1969,8.1973,8.2042,8.203,8.2117,8.2125,8.2127,8.2323,8.2357,8.2472,8.2272,8.2824,8.284,8.2854,8.2985,8.3015,8.304,0,0,0,0,0,8.1583,8.1761,8.1732,8.1769,8.1953,8.2109,8.2133,8.2129,8.2051,8.2138,8.2172,8.2123,8.2439,8.2343,8.2381,8.2502,8.2817,8.2836,8.2853,8.2972,8.3009,8.3039,0,0,0,0,0,0,8.1696,8.177,8.174,8.1947,8.2022,8.2094,8.2203,8.2168,8.2268,8.2253,8.2245,8.2266,8.2459,8.2498,8.239,8.2727,8.2616,8.2642,8.2694,8.2729,8.2756,8.2744,8.2283,0,0,0,0,0,8.1744,8.1863,8.1922,8.21,8.2139,8.2165,8.2232,8.2223,8.2302,8.2334,8.2381,8.2461,8.2578,8.2656,8.2766,8.299,8.3009,8.3092,8.312,8.3142,8.3165,8.329,8.3328,8.292,8.292,8.2919,0,0,8.1847,8.1902,8.1978,8.2124,8.2181,8.2306,8.2192,8.2329,8.2422,8.2355,8.2532,8.2571,8.2659,8.2865,8.2958,8.2904,8.3282,8.3165,8.3182,8.3193,8.3312,8.335,8.3385,8.2932,8.2929,8.2928,0,0,8.2098,8.215,8.2305,8.2365,8.2453,8.2469,8.2507,8.2584,8.2607,8.2785,8.2737,8.2849,8.3051,8.3117,8.3177,8.3455,8.3414,8.3491,8.3637,8.3758,8.379,8.3818,8.392,8.3957,8.3514,8.3514,8.3515,0,8.2214,8.2399,8.239,8.2531,8.2598,8.2541,8.27,8.2759,8.2879,8.2928,8.2865,8.3119,8.3174,8.3396,8.3464,8.3514,8.3559,8.3482,8.3786,8.3814,8.3841,8.3938,8.3976,8.3523,8.3522,8.3521,8.3521,0,8.254,8.2669,8.2784,8.2901,8.298,8.313,8.3145,8.3228,8.3212,8.3236,8.342,8.3484,8.3609,8.366,8.3646,8.3882,8.3846,8.3785,8.3673,8.3889,8.398,8.4017,8.3536,8.3533,8.353,8.3528,0,0,8.2866,8.2977,8.302,8.3073,8.3167,8.3268,8.3416,8.3536,8.3608,8.3693,8.3819,8.3992,8.3937,8.4005,8.3998,8.4105,8.4325,8.4031,8.4033,8.4085,8.4591,8.4638,8.4681,8.4297,8.4304,8.431,8.4584,0,8.3125,8.3382,8.3379,8.3619,8.374,8.3689,8.3818,8.3891,8.3918,8.4026,8.4055,8.4179,8.4095,8.4137,8.4239,8.4276,8.4426,8.4256,8.4417,8.4423,8.4398,8.4728,8.4778,8.5034,8.462,8.4626,8.463,0,8.3462,8.3558,8.3809,8.3887,8.3938,8.4054,8.4166,8.4269,8.4352,8.4364,8.4441,8.4418,8.4572,8.4455,8.4667,8.4552,8.4617,8.4646,8.4656,8.4672,8.4541,8.4756,8.5115,8.5154,8.4686,8.4681,8.4677,0,8.3679,8.3871,8.4046,8.4093,8.4188,8.4272,8.4315,8.4391,8.4464,8.4562,8.4611,8.4725,8.4789,8.488,8.489,8.4804,8.5106,8.4989,8.5122,8.5123,8.5189,8.5186,8.5567,8.5229,8.5228,8.5227,8.5227,0,8.397,8.4126,8.4145,8.4254,8.4428,8.4424,8.4598,8.4634,8.4703,8.4819,8.4782,8.4893,8.4898,8.5013,8.5022,8.5198,8.5226,8.5243,8.5244,8.5247,8.5246,8.5292,8.5275,8.5238,8.5235,8.5233,8.5232,0,8.4242,8.426,8.4449,8.4523,8.4546,8.4672,8.4737,8.4841,8.4864,8.5013,8.5047,8.5085,8.5217,8.5236,8.5391,8.5398,8.561,8.5592,8.5582,8.558,8.5714,8.5702,8.614,8.6198,8.582,8.5824,8.5827,0,8.4427,8.4546,8.4634,8.4708,8.4756,8.4877,8.4952,8.4953,8.5033,8.5137,8.5231,8.5359,8.5462,8.5677,8.572,8.5839,8.5824,8.5969,8.5842,8.5843,8.583,8.5823,8.5837,8.5995,8.5999,8.6002,8.6005,0,8.4756,8.4759,8.4867,8.498,8.507,8.5159,8.5243,8.5307,8.532,8.5412,8.5546,8.5626,8.5785,8.5915,8.6033,8.608,8.6047,8.6044,8.6082,8.6088,8.6079,8.6088,8.5652,8.6035,8.6032,8.603,8.6028,8.6027,8.4992,8.5096,8.5175,8.5297,8.536,8.544,8.5543,8.5579,8.5691,8.5819,8.5813,8.5963,8.6045,8.62,8.6256,8.6374,8.6327,8.6381,8.6395,8.6409,8.6424,8.6058,8.6396,8.6395,8.6394,8.6393,8.6393,0,8.5321,8.5369,8.5481,8.56,8.5697,8.5654,8.5746,8.5831,8.5962,8.604,8.6143,8.6299,8.6425,8.6477,8.6601,8.6686,8.6674,8.6719,8.6714,8.6726,8.6457,8.6413,8.6727,8.6727,8.6727,8.6727,8.6727,8.6726,8.5503,8.5679,8.5692,8.5899,8.5946,8.6091,8.6148,8.6222,8.6285,8.6461,8.6564,8.6597,8.6667,8.6795,8.691,8.6922,8.6971,8.7023,8.7029,8.6778,8.6744,8.6712,8.6671,8.7033,8.7034,8.7288,8.7291,8.7292]},{"header":{"parameterUnit":"m.s-1","parameterCategory":1,"la1":30.2991,"la2":30.254,"lo1":-89.0895,"lo2":-89.0444,"dy":0.0017,"dx":0.0017,"nx":28,"ny":28,"refTime":"2024-02-11T09:00:00:Z","depth":0,"parameterNumber":3,"parameterNumberName":"V-component_of_WINDS"},"data":[0,0,0,0,0,0,0,0,0,0,0,0,0,0,0,0,0,0,0,0,0,0,0,0,0,0,0,0,0,0,0,0,0,0,0,0,0,0,0,0,0,0,0,0,0,0,0,0,0,0,0,0,0,0,0,0,0,0,-2.5804,-2.5804,0,-2.5799,-2.5799,-2.5799,-2.5786,-2.5786,-2.5786,-2.5785,-2.5779,-2.5779,-2.578,0,0,0,0,0,0,0,0,0,0,0,0,0,-2.5802,-2.5802,-2.5804,-2.5804,-2.5804,-2.5799,-2.5799,-2.5799,-2.5786,-2.5786,-2.5786,-2.5785,-2.5779,-2.5779,-2.578,0,0,0,0,0,0,0,0,0,0,0,0,0,-2.5801,-2.5802,-2.5804,-2.5797,-2.5796,-2.5799,-2.5799,-2.5799,-2.5786,-2.5786,-2.5786,-2.5785,-2.5779,-2.5779,-2.578,-2.5789,0,0,-2.578,-2.578,0,0,0,0,0,0,0,0,-2.5801,-2.5801,-2.5798,-2.5798,-2.5797,-2.5793,-2.5796,-2.5796,-2.5787,-2.579,-2.5785,-2.5785,-2.5784,-2.5784,-2.5784,-2.5788,-2.5788,-2.578,-2.578,-2.578,-2.578,0,0,0,0,0,0,0,-2.5801,-2.5801,-2.5802,-2.5798,-2.5797,-2.5794,-2.5793,-2.5796,-2.579,-2.579,-2.5789,-2.5789,-2.5784,-2.5784,-2.5784,-2.5788,-2.578,-2.578,-2.578,-2.578,-2.5801,-2.5801,0,0,0,0,0,0,-2.5802,-2.5801,-2.5802,-2.5802,-2.5798,-2.5794,-2.5794,-2.5795,-2.5789,-2.5788,-2.5789,-2.5788,-2.5784,-2.5783,-2.5783,-2.5794,-2.578,-2.578,-2.578,-2.58,-2.5801,-2.5801,0,0,0,0,0,0,-2.5802,-2.5802,-2.5803,-2.5801,-2.5801,-2.5795,-2.5796,-2.5795,-2.5795,-2.5789,-2.5787,-2.579,-2.5783,-2.5783,-2.5788,-2.5793,-2.578,-2.5781,-2.58,-2.58,-2.5801,-2.5815,0,0,0,0,0,0,-2.5802,-2.5802,-2.5806,-2.5802,-2.5801,-2.5807,-2.5796,-2.5795,-2.5795,-2.5794,-2.579,-2.5788,-2.5783,-2.5788,-2.5788,-2.5793,-2.5781,-2.5799,-2.58,-2.5801,-2.5814,-2.5816,-2.5818,0,0,0,0,0,-2.5802,-2.581,-2.5806,-2.5806,-2.5805,-2.5808,-2.5807,-2.5801,-2.5796,-2.5799,-2.5795,-2.5789,-2.5793,-2.5788,-2.5788,-2.5794,-2.5799,-2.58,-2.5801,-2.5813,-2.5816,-2.5818,0,0,0,0,0,0,-2.5814,-2.5809,-2.5805,-2.5811,-2.581,-2.5805,-2.5809,-2.5804,-2.5804,-2.5803,-2.5795,-2.5794,-2.58,-2.5797,-2.5792,-2.5803,-2.5795,-2.5796,-2.5804,-2.5806,-2.5808,-2.5808,-2.5781,0,0,0,0,0,-2.5817,-2.582,-2.5815,-2.5821,-2.5821,-2.5815,-2.5816,-2.5812,-2.581,-2.5809,-2.5806,-2.5804,-2.5805,-2.5806,-2.5806,-2.5814,-2.5813,-2.5818,-2.582,-2.5822,-2.5822,-2.5826,-2.5829,-2.5805,-2.5805,-2.5804,0,0,-2.5824,-2.5822,-2.5824,-2.5824,-2.5822,-2.5825,-2.5815,-2.5818,-2.582,-2.5809,-2.5813,-2.5811,-2.5809,-2.5815,-2.5818,-2.5813,-2.5829,-2.5823,-2.5824,-2.5824,-2.5828,-2.583,-2.5832,-2.5805,-2.5805,-2.5805,0,0,-2.5838,-2.5837,-2.5842,-2.5841,-2.5839,-2.5836,-2.5837,-2.5833,-2.5831,-2.5836,-2.5828,-2.583,-2.5832,-2.5831,-2.583,-2.5845,-2.5839,-2.5846,-2.5856,-2.586,-2.5862,-2.5863,-2.5868,-2.587,-2.5847,-2.5847,-2.5847,0,-2.5847,-2.5851,-2.5845,-2.5849,-2.5849,-2.5841,-2.5846,-2.5845,-2.5843,-2.5844,-2.5839,-2.5842,-2.584,-2.5846,-2.5849,-2.5849,-2.5851,-2.5846,-2.5862,-2.5863,-2.5865,-2.587,-2.5872,-2.5848,-2.5848,-2.5847,-2.5847,0,-2.5862,-2.5864,-2.5869,-2.5868,-2.5869,-2.5873,-2.5868,-2.587,-2.5866,-2.5863,-2.5867,-2.5865,-2.5865,-2.5866,-2.5862,-2.5872,-2.5869,-2.5863,-2.5855,-2.5868,-2.5873,-2.5874,-2.5849,-2.5849,-2.5848,-2.5848,0,0,-2.5882,-2.5879,-2.588,-2.588,-2.5878,-2.588,-2.5884,-2.5885,-2.5886,-2.5886,-2.5889,-2.5892,-2.5887,-2.5886,-2.5882,-2.5886,-2.5898,-2.588,-2.5879,-2.5883,-2.5908,-2.5912,-2.5915,-2.5894,-2.5894,-2.5895,-2.5909,0,-2.5895,-2.5902,-2.5898,-2.5905,-2.5908,-2.5901,-2.5904,-2.5904,-2.5901,-2.5903,-2.59,-2.5902,-2.5895,-2.5895,-2.5899,-2.5895,-2.5903,-2.5895,-2.5897,-2.5897,-2.5897,-2.5917,-2.5921,-2.5934,-2.591,-2.591,-2.5911,0,-2.5911,-2.5911,-2.592,-2.5918,-2.5919,-2.5922,-2.5923,-2.5925,-2.5924,-2.5922,-2.5922,-2.5917,-2.5921,-2.5913,-2.5919,-2.5913,-2.5914,-2.5913,-2.5913,-2.5913,-2.5904,-2.5916,-2.5938,-2.594,-2.5913,-2.5913,-2.5913,0,-2.5924,-2.5928,-2.5933,-2.5933,-2.5931,-2.5934,-2.5933,-2.5932,-2.5932,-2.5933,-2.5934,-2.5935,-2.5935,-2.5936,-2.5931,-2.5926,-2.5937,-2.5929,-2.5935,-2.5936,-2.5937,-2.5937,-2.5959,-2.5939,-2.5939,-2.5939,-2.5939,0,-2.5939,-2.5944,-2.5939,-2.5943,-2.5948,-2.5943,-2.5949,-2.5948,-2.5947,-2.595,-2.5944,-2.5946,-2.594,-2.5943,-2.5939,-2.5944,-2.5944,-2.5943,-2.5942,-2.5943,-2.5943,-2.5943,-2.5942,-2.5939,-2.5939,-2.5939,-2.5939,0,-2.5955,-2.5952,-2.5957,-2.5955,-2.5955,-2.5959,-2.5957,-2.596,-2.5958,-2.5962,-2.5962,-2.5958,-2.5961,-2.5957,-2.5958,-2.5956,-2.5963,-2.5961,-2.5964,-2.5963,-2.5969,-2.5969,-2.5991,-2.5994,-2.5972,-2.5972,-2.5973,0,-2.5964,-2.5968,-2.5967,-2.5969,-2.5969,-2.5971,-2.5972,-2.5968,-2.5969,-2.5969,-2.5972,-2.5974,-2.5975,-2.598,-2.5977,-2.5978,-2.5976,-2.5983,-2.5976,-2.5977,-2.5975,-2.5975,-2.5975,-2.5985,-2.5985,-2.5985,-2.5985,0,-2.5981,-2.598,-2.5982,-2.5984,-2.5985,-2.5986,-2.5987,-2.5989,-2.5984,-2.5986,-2.5989,-2.599,-2.5992,-2.5994,-2.5995,-2.5994,-2.5989,-2.5988,-2.599,-2.5991,-2.5992,-2.5991,-2.5967,-2.5987,-2.5987,-2.5987,-2.5987,-2.5987,-2.5994,-2.5998,-2.5997,-2.6,-2.6,-2.6001,-2.6004,-2.6002,-2.6004,-2.6006,-2.6003,-2.6007,-2.6006,-2.6007,-2.6007,-2.6009,-2.6006,-2.6008,-2.6008,-2.6009,-2.601,-2.5992,-2.6009,-2.6009,-2.6009,-2.6009,-2.6009,0,-2.6011,-2.6011,-2.6013,-2.6014,-2.6017,-2.6013,-2.6013,-2.6015,-2.6018,-2.6019,-2.602,-2.6023,-2.6026,-2.6023,-2.6025,-2.6028,-2.6026,-2.6028,-2.6028,-2.6028,-2.6013,-2.6012,-2.603,-2.603,-2.603,-2.603,-2.603,-2.603,-2.602,-2.6025,-2.6024,-2.603,-2.6029,-2.6033,-2.6034,-2.6034,-2.6035,-2.6039,-2.6041,-2.6039,-2.6039,-2.604,-2.6042,-2.6042,-2.6042,-2.6046,-2.6045,-2.6031,-2.6029,-2.6027,-2.6025,-2.6046,-2.6046,-2.6059,-2.6059,-2.6059]}]]